Hourly Weather Roundup
Issued by NWS Central Illinois

Home | Current Version | Previous Version | Text Only | Print | Product List | Glossary On
Versions: 1 2 3 4 5 6 7 8 9 10 11 12 13 14 15 16 17 18 19 20 21 22 23 24 25 26 27 28 29 30 31 32 33 34 35 36 37 38 39 40 41 42 43 44 45 46 47 48 49 50
000
NZUS43 KILX 250110
HWRILX

Area Weather Roundup
National Weather Service Lincoln IL
800 PM CDT MON APR 24 2017

NOTE:  "FAIR" indicates few or no clouds below 12,000 feet, with
       no sigificant weather and/or obstructions to visibility.


CITY           SKY/WX    TMP DP  RH WIND       PRES   REMARKS
Bloomington    CLEAR     66  28  24 SE9       29.74F
Champaign      CLEAR     64  33  31 E8        29.76R
Danville       CLEAR     68  36  30 E3        29.74R
Decatur        CLEAR     64  33  31 SE9       29.72F
Effingham      CLEAR     65  42  42 CALM      29.76S
Flora          CLEAR     68  44  42 CALM      29.74S
Galesburg      CLEAR     67  31  26 CALM      29.69R
Jacksonville   CLEAR     67  31  26 SE8       29.70S
Lacon          CLEAR     69  27  21 SE8       29.70S
Lawrenceville  CLEAR     68  45  43 E6        29.73F
Litchfield     CLEAR     65  33  30 SE6       29.72F
$$


CITY           SKY/WX    TMP DP  RH WIND       PRES   REMARKS
Lincoln        CLEAR     67  32  26 SE6       29.71S
Macomb         CLEAR     68  26  20 SE7       29.70S
Mattoon        CLEAR     66  43  43 CALM      29.74S
Mt Carmel AP   CLEAR     68  41  37 CALM      29.73S
Olney-Noble AP CLEAR     66  37  34 CALM      29.74S
Paris AP       CLEAR     68  39  34 CALM      29.76S
Peoria         CLEAR     70  24  17 SE8       29.70F
Pontiac        CLEAR     67  32  27 E10       29.75S
Rantoul        CLEAR     68  34  28 E8        29.76S
Robinson       CLEAR     64  43  46 E3        29.74S
Springfield    CLEAR     67  29  24 S8        29.71F
Taylorville    CLEAR     66  31  26 SE6       29.72F
$$

...REGIONAL REPORTS...


CITY           SKY/WX    TMP DP  RH WIND       PRES   REMARKS
Chicago O`Hare CLOUDY    61  32  33 E10       29.76F
Kankakee       PTCLDY    64  34  33 E7        29.78F
Moline         CLOUDY    63  35  35 SE6       29.68S
Mount Sterling CLEAR     68  27  22 SE7       29.67F
Mount Vernon   CLEAR     58  46  64 CALM      29.74F
Pittsfield     CLEAR     66  32  28 SE8       29.69F
Quincy         CLOUDY    68  29  23 S6        29.68R
Rockford       PTCLDY    66  30  26 E8        29.75S
$$


CITY           SKY/WX    TMP DP  RH WIND       PRES   REMARKS
Burlington     CLOUDY    64  34  32 S6        29.67S
Cedar Rapids   CLOUDY    69  28  21 SE12G22   29.63S
Des Moines     CLOUDY    68  31  25 S8        29.59S
Kirksville     CLEAR     62  32  32 SE7       29.64F
Ottumwa        CLOUDY    68  31  25 SE10      29.62F
St Louis       PTCLDY    72  36  26 S12       29.72F
$$


CITY           SKY/WX    TMP DP  RH WIND       PRES   REMARKS
Terre Haute    CLEAR     66  44  45 E6        29.75S
Evansville     CLEAR     69  50  50 CALM      29.73F
Indianapolis   PTCLDY    70  47  43 E10       29.77R
Lafayette      CLEAR     62  40  44 E9        29.76S
Madison        CLOUDY    63  33  32 SE12      29.74R
Milwaukee      CLOUDY    54  31  41 SE5       29.79F
$$






USA.gov is the U.S. government's official web portal to all federal, state and local government web resources and services.